GW3723 Weather Reports


Display with metric or nautical units.
time (UTC)temp
F
wind
direction
speed
MPH
gust
MPH
rain 1hr
in
rain 24hr
in
rain mn
in
humidity
%
barometer
mb
20260504222004 63 184 3.0 13.0 0.00 0.00 0.00 48 1009.0
20260504221505 63 169 2.0 11.0 0.00 0.00 0.00 48 1009.0
20260504221003 63 135 6.0 12.0 0.00 0.00 0.00 47 1009.0
20260504220503 63 196 7.0 14.0 0.00 0.00 0.00 47 1009.0
20260504220003 64 290 8.0 14.0 0.00 0.00 0.00 45 1009.1
20260504215503 64 271 6.0 14.0 0.00 0.00 0.00 45 1009.0
20260504215004 65 220 8.0 16.0 0.00 0.00 0.00 44 1009.0
20260504214504 65 245 7.0 16.0 0.00 0.00 0.00 44 1009.0
20260504214002 66 258 7.0 13.0 0.00 0.00 0.00 44 1009.1
20260504213503 65 284 3.0 13.0 0.00 0.00 0.00 45 1008.9
20260504213013 66 254 5.0 13.0 0.00 0.00 0.00 43 1009.0
20260504212503 66 63 3.0 16.0 0.00 0.00 0.00 43 1008.9
20260504212004 66 232 5.0 16.0 0.00 0.00 0.00 43 1009.0
20260504211511 66 231 8.0 16.0 0.00 0.00 0.00 43 1009.0
20260504211002 66 261 7.0 15.0 0.00 0.00 0.00 42 1009.0
20260504210503 67 297 5.0 13.0 0.00 0.00 0.00 42 1008.9
20260504210006 67 249 5.0 16.0 0.00 0.00 0.00 42 1008.9
20260504205503 67 269 5.0 16.0 0.00 0.00 0.00 41 1008.9
20260504205003 67 269 4.0 12.0 0.00 0.00 0.00 42 1008.9
20260504204504 67 261 5.0 10.0 0.00 0.00 0.00 42 1008.9
20260504204003 67 267 5.0 13.0 0.00 0.00 0.00 42 1008.9
20260504203506 67 234 5.0 13.0 0.00 0.00 0.00 44 1009.0
20260504203007 67 264 6.0 12.0 0.00 0.00 0.00 41 1008.9
20260504202504 67 265 4.0 16.0 0.00 0.00 0.00 42 1009.0
20260504202003 67 197 7.0 14.0 0.00 0.00 0.00 41 1008.9
20260504201505 67 182 4.0 14.0 0.00 0.00 0.00 44 1008.9
20260504201002 66 319 7.0 14.0 0.00 0.00 0.00 42 1008.8
20260504200504 66 254 9.0 14.0 0.00 0.00 0.00 40 1008.9
20260504200004 67 309 3.0 11.0 0.00 0.00 0.00 40 1008.9
20260504195502 67 246 4.0 12.0 0.00 0.00 0.00 39 1008.9
20260504195002 67 246 7.0 16.0 0.00 0.00 0.00 39 1008.9
20260504194504 67 244 8.0 16.0 0.00 0.00 0.00 40 1008.9
20260504194002 67 273 8.0 14.0 0.00 0.00 0.00 37 1008.9
20260504193501 67 273 7.0 14.0 0.00 0.00 0.00 37 1008.8
20260504193004 67 252 5.0 14.0 0.00 0.00 0.00 37 1008.8
20260504192502 67 268 7.0 18.0 0.00 0.00 0.00 36 1008.8
20260504192003 67 315 7.0 18.0 0.00 0.00 0.00 36 1008.9
20260504191504 67 261 6.0 14.0 0.00 0.00 0.00 36 1008.8
20260504191003 67 276 8.0 15.0 0.00 0.00 0.00 35 1008.9
20260504190503 68 240 5.0 15.0 0.00 0.00 0.00 38 1009.0
20260504190003 68 244 4.0 13.0 0.00 0.00 0.00 35 1009.0
20260504185506 67 232 4.0 14.0 0.00 0.00 0.00 34 1009.0
20260504185002 67 232 4.0 14.0 0.00 0.00 0.00 37 1009.0
20260504184511 67 212 5.0 11.0 0.00 0.00 0.00 37 1009.0
20260504184003 67 215 7.0 15.0 0.00 0.00 0.00 34 1009.1
20260504183503 67 279 7.0 15.0 0.00 0.00 0.00 35 1009.1
20260504183005 67 204 5.0 13.0 0.00 0.00 0.00 35 1009.2
20260504182506 67 305 7.0 15.0 0.00 0.00 0.00 36 1009.3
20260504182002 67 317 9.0 15.0 0.00 0.00 0.00 35 1009.3
20260504181504 67 270 9.0 15.0 0.00 0.00 0.00 35 1009.3
20260504181003 67 312 9.0 15.0 0.00 0.00 0.00 34 1009.5
20260504180503 67 159 4.0 14.0 0.00 0.00 0.00 34 1009.5
20260504180006 67 269 4.0 16.0 0.00 0.00 0.00 37 1009.6
20260504175505 67 276 7.0 16.0 0.00 0.00 0.00 34 1009.5
20260504175004 66 287 10.0 16.0 0.00 0.00 0.00 35 1009.6
20260504174502 66 281 8.0 13.0 0.00 0.00 0.00 35 1009.7
20260504174002 66 279 6.0 13.0 0.00 0.00 0.00 36 1009.7
20260504173506 66 205 5.0 12.0 0.00 0.00 0.00 35 1009.8
20260504173008 66 283 4.0 14.0 0.00 0.00 0.00 37 1009.8
20260504172503 66 280 6.0 14.0 0.00 0.00 0.00 35 1009.9
20260504172003 66 309 7.0 14.0 0.00 0.00 0.00 37 1009.8
20260504171504 66 257 6.0 14.0 0.00 0.00 0.00 34 1009.7
20260504171002 65 139 6.0 14.0 0.00 0.00 0.00 34 1009.8
20260504170503 65 241 7.0 14.0 0.00 0.00 0.00 34 1010.0
20260504151008 64 293 5.0 17.0 0.00 0.00 0.00 37 1010.9
20260504150504 63 297 8.0 21.0 0.00 0.00 0.00 36 1011.1
20260504141002 62 275 9.0 17.0 0.00 0.00 0.00 39 1011.8
20260504140502 62 274 8.0 14.0 0.00 0.00 0.00 38 1011.8
20260504130506 58 270 6.0 12.0 0.00 0.00 0.00 46 1012.1
20260504110503 39 130 0.0 0.0 0.00 0.00 0.00 84 1012.3
20260504100505 36 118 0.0 0.0 0.00 0.00 0.00 85 1012.0
20260504082002 36 152 0.0 0.0 0.00 0.00 0.00 84 1011.3
20260504081505 36 152 0.0 0.0 0.00 0.00 0.00 84 1011.3
20260504081004 36 152 0.0 0.0 0.00 0.00 0.00 84 1011.3
20260504080503 36 152 0.0 0.0 0.00 0.00 0.00 84 1011.4
20260504050503 35 119 0.0 0.0 0.00 0.00 0.00 78 1011.2
20260504050004 35 120 0.0 0.0 0.00 0.00 0.00 78 1011.2
20260504045504 35 120 0.0 0.0 0.00 0.00 0.00 79 1011.3
20260504045007 36 120 0.0 0.0 0.00 0.00 0.00 78 1011.3
20260504044510 36 120 0.0 0.0 0.00 0.00 0.00 77 1011.4
20260504044006 36 120 0.0 0.0 0.00 0.00 0.00 76 1011.5
20260504043504 36 120 0.0 0.0 0.00 0.00 0.00 77 1011.5
20260504043009 36 120 0.0 0.0 0.00 0.00 0.00 77 1011.6
20260504042503 36 120 0.0 0.0 0.00 0.00 0.00 76 1011.6
20260504042009 36 120 0.0 0.0 0.00 0.00 0.00 76 1011.5
20260504041514 36 120 0.0 0.0 0.00 0.00 0.00 74 1011.5
20260504041002 36 120 0.0 0.0 0.00 0.00 0.00 74 1011.4
20260504040510 36 120 0.0 0.0 0.00 0.00 0.00 74 1011.4
20260504040018 37 120 0.0 0.0 0.00 0.00 0.00 75 1011.3
20260504035511 37 120 0.0 0.0 0.00 0.00 0.00 75 1011.3
20260504035004 37 120 0.0 0.0 0.00 0.00 0.00 74 1011.3
20260504034505 37 120 0.0 0.0 0.00 0.00 0.00 76 1011.3
20260504034004 37 120 0.0 0.0 0.00 0.00 0.00 75 1011.3
20260504033508 37 120 0.0 0.0 0.00 0.00 0.00 74 1011.4
20260504033009 37 120 0.0 0.0 0.00 0.00 0.00 75 1011.4
20260504032504 37 120 0.0 0.0 0.00 0.00 0.00 75 1011.3
20260504032005 37 120 0.0 0.0 0.00 0.00 0.00 74 1011.2
20260504031504 38 120 0.0 0.0 0.00 0.00 0.00 73 1011.2
20260504031005 38 120 0.0 0.0 0.00 0.00 0.00 74 1011.2
20260504030506 38 120 0.0 0.0 0.00 0.00 0.00 74 1011.2
20260504030017 38 120 0.0 0.0 0.00 0.00 0.00 73 1011.2
20260504025503 38 120 0.0 0.0 0.00 0.00 0.00 73 1011.2
20260504025006 38 120 0.0 0.0 0.00 0.00 0.00 73 1011.2
20260504024522 38 120 0.0 0.0 0.00 0.00 0.00 72 1011.2
20260504024006 38 120 0.0 0.0 0.00 0.00 0.00 71 1011.1
20260504023503 38 121 0.0 0.0 0.00 0.00 0.00 70 1011.2
20260504023005 39 129 0.0 0.0 0.00 0.00 0.00 70 1011.1
20260504022504 39 134 0.0 0.0 0.00 0.00 0.00 70 1011.1
20260504022004 39 134 0.0 0.0 0.00 0.00 0.00 70 1011.0
20260504021508 39 133 0.0 0.0 0.00 0.00 0.00 71 1011.0
20260504021005 39 133 0.0 0.0 0.00 0.00 0.00 71 1011.0
20260504020505 39 133 0.0 0.0 0.00 0.00 0.00 70 1010.9
20260504020015 39 133 0.0 1.0 0.00 0.00 0.00 69 1011.0
20260504015505 40 133 0.0 1.0 0.00 0.00 0.00 68 1010.9
20260504015008 40 133 0.0 0.0 0.00 0.00 0.00 68 1010.9
20260504014507 40 127 0.0 2.0 0.00 0.00 0.00 67 1010.9
20260504014006 40 122 0.0 2.0 0.00 0.00 0.00 67 1010.8
20260504013508 40 121 0.0 2.0 0.00 0.00 0.00 67 1010.6
20260504013034 40 121 0.0 1.0 0.00 0.00 0.00 65 1010.5
20260504012504 41 121 0.0 1.0 0.00 0.00 0.00 65 1010.6
20260504012007 41 121 0.0 1.0 0.00 0.00 0.00 65 1010.6
20260504011507 41 121 0.0 1.0 0.00 0.00 0.00 64 1010.4
20260504011007 41 122 1.0 1.0 0.00 0.00 0.00 63 1010.3
20260504010502 42 122 0.0 1.0 0.00 0.00 0.00 63 1010.4
20260504010010 42 123 0.0 1.0 0.00 0.00 0.00 61 1010.3
20260504005505 42 123 1.0 1.0 0.00 0.00 0.00 63 1010.2
20260504005002 43 138 1.0 1.0 0.00 0.00 0.00 63 1010.1
20260504004516 43 139 1.0 1.0 0.00 0.00 0.00 62 1009.9
20260504004005 43 137 1.0 1.0 0.00 0.00 0.00 60 1009.8
20260504003507 44 144 1.0 1.0 0.00 0.00 0.00 59 1009.8
20260504003007 44 136 1.0 1.0 0.00 0.00 0.00 58 1009.7
20260504002506 45 130 1.0 1.0 0.00 0.00 0.00 59 1009.6
20260504002009 46 125 1.0 1.0 0.00 0.00 0.00 57 1009.5
20260504001506 46 150 1.0 1.0 0.00 0.00 0.00 54 1009.6
20260504001005 47 150 0.0 1.0 0.00 0.00 0.00 53 1009.5
20260504000506 48 291 0.0 1.0 0.00 0.00 0.00 54 1009.4
20260504000007 49 291 1.0 2.0 0.00 0.00 0.00 49 1009.2
20260503235503 50 291 0.0 2.0 0.00 0.00 0.00 49 1009.3
20260503235007 50 291 0.0 2.0 0.00 0.00 0.00 42 1009.2
20260503234513 51 291 1.0 2.0 0.00 0.00 0.00 40 1009.3
20260503234013 51 296 1.0 5.0 0.00 0.00 0.00 40 1009.3
20260503233507 51 312 2.0 5.0 0.00 0.00 0.00 39 1009.3
20260503233017 51 300 2.0 4.0 0.00 0.00 0.00 40 1009.3
20260503232508 51 298 2.0 3.0 0.00 0.00 0.00 40 1009.3
20260503232008 52 278 2.0 4.0 0.00 0.00 0.00 39 1009.2
20260503231518 52 279 2.0 4.0 0.00 0.00 0.00 39 1009.2
20260503231012 52 302 2.0 11.0 0.00 0.00 0.00 40 1009.2
20260503230508 52 312 4.0 11.0 0.00 0.00 0.00 38 1009.1
20260503230016 52 291 3.0 9.0 0.00 0.00 0.00 39 1009.1
20260503225506 52 297 6.0 9.0 0.00 0.00 0.00 39 1009.1
20260503225009 52 298 4.0 8.0 0.00 0.00 0.00 38 1009.0
20260503224510 52 335 5.0 11.0 0.00 0.00 0.00 38 1009.0
20260503224005 52 282 7.0 13.0 0.00 0.00 0.00 38 1009.0
20260503223501 53 281 6.0 13.0 0.00 0.00 0.00 37 1008.9
20260503223002 53 340 4.0 9.0 0.00 0.00 0.00 37 1008.8
20260503222501 53 300 5.0 9.0 0.00 0.00 0.00 38 1008.9